Bei Facebook empfehlenBei Twitter postenGoogle plusPinterest

Das Wetter im Erzgebirge am 04.12.2016

Wetter und Klima am 04.12.2016 Holzhau im Erzgebirge (630m ü.NN)
Letzte gemessene Temperatur und Uhrzeit der Messung23:45:00 Uhr-8.70 °C
Temperatur (Maximum / Höchstwert) und Uhrzeit der Messung13:45:00 Uhr1.50 °C
Temperatur (Minimum / Tiefstwert) und Uhrzeit der Messung05:45:00-10.10 °C
Errechneter Absolutwert der Temperaturschwankungen zwischen Tmin und Tmax des Tages11.60 K
Errechnete Tagesmitteltemperatur-6.34583 °C
Gesamt - Niederschlag des Tages (in flüssiger Form)0.00 Liter / m²
Luftdruck (Maximum / Höchstwert) und Zeitpunkt der Messung20:45:00 Uhr1024.90 hPa
Luftdruck (Minimum / Tiefstwert) und Zeitpunkt der Messung05:30:00 Uhr1022.30 hPa
Errechneter Absolutwert der Luftdruckschwankungen des Tages2.60 hPa
Höchste gemessene Windgeschwindigkeit und Uhrzeit der Messung23:45:00 Uhr0.00 km/h
Errechnete Windhäufigkeit in Relation zu den Messwerten des Tages0.00000 %
Niedrigste Windkühle (Windchill) und Zeitpunkt der Messung05:45:00 Uhr-10.10 °C
Taupunkt (Maximum / Höchstwert) und Uhrzeit der Messung13:30:00 Uhr0.00 °C
Taupunkt (Minimum / Tiefstwert) und Uhrzeit der Messung05:45:00-11.30 °C
Anzahl der automatisch eingelesenen Messwerte 96

Detaillierte Wetter- und Klima- Messwerte für den 04.12.2016 in Holzhau im Erzgebirge (630m ü.NN)
ZeitTemperaturLuftdruckRel. LuftfeuchteWindWindrichtungWindchillTaupunktNiederschlag l/m²
23:45:00-8.70 °C1024.40 hPa87.00 %-10.70 °C 
23:30:00-8.40 °C1024.50 hPa87.00 %-10.40 °C 
23:15:00-8.10 °C1024.50 hPa86.00 %-10.30 °C 
23:00:00-7.60 °C1024.60 hPa87.00 %-9.60 °C 
22:45:00-7.30 °C1024.60 hPa86.00 %-9.50 °C 
22:30:00-6.90 °C1024.50 hPa87.00 %-8.90 °C 
22:15:00-6.80 °C1024.40 hPa87.00 %-8.80 °C 
22:00:00-6.90 °C1024.60 hPa88.00 %-8.80 °C 
21:45:00-7.00 °C1024.60 hPa89.00 %-8.70 °C 
21:30:00-7.30 °C1024.70 hPa89.00 %-9.00 °C 
21:15:00-7.90 °C1024.80 hPa88.00 %-9.70 °C 
21:00:00-8.10 °C1024.70 hPa88.00 %-9.90 °C 
20:45:00-7.80 °C1024.90 hPa88.00 %-9.60 °C 
20:30:00-7.40 °C1024.80 hPa87.00 %-9.40 °C 
20:15:00-6.80 °C1024.70 hPa88.00 %-8.70 °C 
20:00:00-6.50 °C1024.70 hPa88.00 %-8.40 °C 
19:45:00-6.50 °C1024.80 hPa88.00 %-8.40 °C 
19:30:00-6.70 °C1024.80 hPa88.00 %-8.60 °C 
19:15:00-6.70 °C1024.70 hPa88.00 %-8.60 °C 
19:00:00-6.50 °C1024.60 hPa88.00 %-8.40 °C 
18:45:00-6.40 °C1024.50 hPa87.00 %-8.40 °C 
18:30:00-6.40 °C1024.30 hPa88.00 %-8.30 °C 
18:15:00-6.20 °C1024.30 hPa87.00 %-8.20 °C 
18:00:00-5.80 °C1024.50 hPa87.00 %-7.80 °C 
17:45:00-5.10 °C1024.60 hPa87.00 %-7.10 °C 
17:30:00-4.60 °C1024.30 hPa87.00 %-6.70 °C 
17:15:00-4.70 °C1024.30 hPa87.00 %-6.70 °C 
17:00:00-4.20 °C1024.30 hPa86.00 %-6.40 °C 
16:45:00-3.90 °C1024.30 hPa86.00 %-6.10 °C 
16:30:00-3.60 °C1024.10 hPa86.00 %-5.80 °C 
16:15:00-3.10 °C1024.10 hPa85.00 %-5.50 °C 
16:00:00-2.60 °C1024.20 hPa85.00 %-5.00 °C 
15:45:00-2.10 °C1024.10 hPa84.00 %-4.70 °C 
15:30:00-1.40 °C1024.10 hPa84.00 %-4.00 °C 
15:15:00-0.40 °C1024.00 hPa84.00 %-3.00 °C 
15:00:000.30 °C1024.20 hPa84.00 %-2.10 °C 
14:45:000.80 °C1024.00 hPa85.00 %-1.40 °C 
14:30:001.00 °C1024.00 hPa87.00 %-0.90 °C 
14:15:000.90 °C1024.00 hPa87.00 %-1.00 °C 
14:00:001.10 °C1024.00 hPa87.00 %-0.80 °C 
13:45:001.50 °C1024.00 hPa88.00 %-0.30 °C 
13:30:001.50 °C1024.10 hPa90.00 %0.00 °C 
13:15:000.80 °C1024.40 hPa90.00 %-0.60 °C 
13:00:000.90 °C1024.40 hPa91.00 %-0.40 °C 
12:45:000.30 °C1024.20 hPa92.00 %-0.80 °C 
12:30:00-0.50 °C1024.30 hPa93.00 %-1.60 °C 
12:15:00-1.20 °C1024.20 hPa93.00 %-2.30 °C 
12:00:00-1.70 °C1024.20 hPa93.00 %-2.80 °C 
11:45:00-2.50 °C1024.30 hPa93.00 %-3.60 °C 
11:30:00-3.00 °C1024.30 hPa93.00 %-4.10 °C 
11:15:00-3.30 °C1024.50 hPa93.00 %-4.40 °C 
11:00:00-3.90 °C1024.60 hPa93.00 %-5.00 °C 
10:45:00-4.40 °C1024.70 hPa93.00 %-5.50 °C 
10:30:00-5.10 °C1024.60 hPa93.00 %-6.20 °C 
10:15:00-5.80 °C1024.50 hPa93.00 %-6.90 °C 
10:00:00-6.70 °C1024.60 hPa93.00 %-7.80 °C 
09:45:00-7.60 °C1024.20 hPa93.00 %-8.60 °C 
09:30:00-8.40 °C1024.10 hPa92.00 %-9.60 °C 
09:15:00-8.40 °C1023.80 hPa92.00 %-9.60 °C 
09:00:00-8.60 °C1023.70 hPa92.00 %-9.80 °C 
08:45:00-8.80 °C1023.50 hPa92.00 %-10.00 °C 
08:30:00-9.00 °C1023.20 hPa92.00 %-10.20 °C 
08:15:00-9.10 °C1023.00 hPa92.00 %-10.30 °C 
08:00:00-9.20 °C1023.10 hPa92.00 %-10.40 °C 
07:45:00-9.30 °C1023.00 hPa92.00 %-10.50 °C 
07:30:00-9.20 °C1022.70 hPa92.00 %-10.40 °C 
07:15:00-9.50 °C1022.80 hPa92.00 %-10.70 °C 
07:00:00-9.70 °C1022.50 hPa92.00 %-10.90 °C 
06:45:00-9.60 °C1022.70 hPa92.00 %-10.80 °C 
06:30:00-9.60 °C1022.40 hPa92.00 %-10.80 °C 
06:15:00-9.90 °C1022.40 hPa92.00 %-11.10 °C 
06:00:00-9.90 °C1022.40 hPa92.00 %-11.10 °C 
05:45:00-10.10 °C1022.40 hPa92.00 %-11.30 °C 
05:30:00-9.90 °C1022.30 hPa92.00 %-11.10 °C 
05:15:00-9.80 °C1022.40 hPa92.00 %-11.00 °C 
05:00:00-9.60 °C1022.50 hPa92.00 %-10.80 °C 
04:45:00-9.60 °C1022.30 hPa92.00 %-10.80 °C 
04:30:00-9.60 °C1022.50 hPa92.00 %-10.80 °C 
04:15:00-9.40 °C1022.40 hPa92.00 %-10.60 °C 
04:00:00-9.30 °C1022.30 hPa92.00 %-10.50 °C 
03:45:00-9.70 °C1022.30 hPa92.00 %-10.90 °C 
03:30:00-9.70 °C1022.40 hPa92.00 %-10.90 °C 
03:15:00-9.60 °C1022.60 hPa92.00 %-10.80 °C 
03:00:00-9.60 °C1022.50 hPa92.00 %-10.80 °C 
02:45:00-9.20 °C1022.50 hPa92.00 %-10.40 °C 
02:30:00-9.50 °C1022.50 hPa92.00 %-10.70 °C 
02:15:00-9.30 °C1022.70 hPa92.00 %-10.50 °C 
02:00:00-9.40 °C1022.50 hPa92.00 %-10.60 °C 
01:45:00-9.60 °C1022.50 hPa92.00 %-10.80 °C 
01:30:00-9.60 °C1022.40 hPa92.00 %-10.80 °C 
01:15:00-9.50 °C1022.30 hPa92.00 %-10.70 °C 
01:00:00-9.50 °C1022.40 hPa92.00 %-10.70 °C 
00:45:00-9.20 °C1022.30 hPa92.00 %-10.40 °C 
00:30:00-9.10 °C1022.40 hPa92.00 %-10.30 °C 
00:15:00-9.10 °C1022.40 hPa92.00 %-10.30 °C 
00:00:00-9.10 °C1022.40 hPa92.00 %-10.30 °C 

Permanenter Link zu dieser Seite: Wetter im Erzgebirge am 04.12.2016
Performance-Info: Die Erstellung der Seite / Statistik(en) / Tabelle(n) erforderte 5 Datenbankserver-Abfrage(n) und dauerte 101 Millisekunden. (Dieser Messwert ist von der Gesamt-Auslastung des Servers abhängig.)
Erzgebirge - Wetter | Erzgebirge - Wetter (Mobilgeräte) | Komplette Klimadatenbank